Showing default

HAWK-A, 43765

Orbit data source: Space-Track

HAWK-A, 43765 is a payload satellite owned by HawkEye 360 (US) in SSO that was launched on Mon, 03 Dec 2018 UTC via an FALCON 9 launch vehicle from the Air Force Western Test Range (AFWTR). Payload-class satellites include a variety of spacecraft equipped with specific instruments for various scientific and technological missions. These include communications satellites like Starlink; space stations such as the ISS; scientific satellites like the Hubble; Earth observation satellites from companies like Planet Labs, Umbra, and HawkEye 360; GPS; miniature CubeSats for education and research; and military/defense satellites.

Loading next visibility...
Identifier
43765, 2018-099H
Orbit
SSO
Country
Flag of USUS
Related business
Manufacturer
UTIAS-SFL
Mission
Operational Commercial Sigint
Bus & Motor
NEMO-V1, Unknown motor
Mass
12.75 kg wet, 12 kg dry
Launch date (UTC)
2018-12-03 (8 years ago)
Launch vehicle
FALCON 9
Launch site
Air Force Western Test Range (AFWTR)
Object type
Payload
Rocket body
Debris
Shape & HBR
Box + 2 Pan, 1.0 m
Radar Cross Section
0.348 m², Medium (>0.1 m² and < 1m²)

Expand to show TLE details & history
Last TLE update: 13 hours ago

TLE from 13 hours ago
0 HAWK-A
1 43765U 18099H   26219.85856211  .00003739  00000-0  14887-3 0  9991
2 43765  97.3881 271.4293 0036082 103.1872 257.3395 15.25259625420970
Epoch: 2026-08-07T20:36Z
TLE epoch observation values (Epoch: 2026-08-07T20:36:19.766Z)
Latitude
-0.00008°
Longitude
5.96873°
Altitude
498.622 km
Speed
7.612 km/s
True Right ascension
18h 05m 43s
True Declination
0° 00' 00"
Sunlit
Object was in full shadow at epoch
Visualization orbit readout
Latitude
Unknown
Longitude
Unknown
Altitude
Unknown
Speed
Unknown
Apparent Right ascension
Unknown
Apparent Declination
Unknown
Sunlit
N/A
Visualization observer readout
Local Sidereal Time
23:45:03
Azimuth
Unknown
Elevation
Unknown
Doppler factor
Unknown
Orbital elements
Apogee altitude
511.735 km
Perigee altitude
462.193 km
Semi-major axis
6,865.101 km
Eccentricity
0.00361
Inclination
97.3881°
RAAN
271.4293°
Arg. of periapsis
103.1872°
True anomaly
256.93649°
Mean anomaly
257.3395°
Eccentric anomaly
257.13795°
Mean motion
3.81569 °/min
Orbital period
94.35 mins
BSTAR
0.00014887
Loading maneuver chart data...
Computing Atmospheric mass density...
Loading historical data...
Loading historical data...
Loading historical data...
Loading historical data...
Loading historical data...
Loading historical data...
Loading historical data...

Documentation

Showing up to 5 results
|